Location: Newark
(7.0858°N, 171.3717°E)
Time: 06:09:28
(UTC+00:00)

Courier 1B - Pass Details

Date: 01 December 2020
Orbit: 962 x 1209 km, 28.3° (Epoch: 19 January)

Event Time Altitude Azimuth Distance (km) Brightness Sun altitude
Rises 19:37:56 0° 260° (W) 4,097 10.3 14.3°
Reaches altitude 10° 19:42:41 10° 235° (SW) 3,141 9.9 15.3°
Maximum altitude 19:46:13 13° 208° (SSW) 2,876 10.0 16.1°
Drops below altitude 10° 19:49:44 10° 180° (S) 3,124 10.6 16.9°
Sets 19:54:27 0° 155° (SSE) 4,056 11.6 18.0°
